Location: Amsterdam
(30.7274°N, 84.4357°W)
Time: 21:37:23
(UTC+00:00)

Explorer 11/Cluster Stage 4 - Pass Details

Date: 24 February 2026
Orbit: 463 x 1176 km, 28.8° (Epoch: 9 March)

Event Time Altitude Azimuth Distance (km) Brightness Sun altitude
Rises 15:37:31 0° 247° (WSW) 3,710 9.9 38.8°
Reaches altitude 10° 15:40:29 10° 243° (WSW) 2,650 9.2 39.2°
Maximum altitude 15:46:38 53° 168° (SSE) 981 8.6 40.1°
Drops below altitude 10° 15:51:38 10° 91° (E) 2,158 9.5 40.8°
Sets 15:53:51 0° 87° (E) 2,970 9.9 41.1°
